This is the latest recevied weather packets stored in our database for station/object DB0OHA-10. If no packets are shown the sender has not sent any weather packets the latest 10 day(s).
| Time | Temp. | Humidity | Pressure | Rain* | Wind** | Luminosity | Snow |
|---|---|---|---|---|---|---|---|
| 1777837514 | 18.33° C | 51% | 1010.9 hPa | 0 mm | - | 0 W/m² | - |
| 1777836614 | 18.33° C | 50% | 1010.6 hPa | 0 mm | - | 0 W/m² | - |
| 1777835714 | 18.33° C | 50% | 1010.6 hPa | 0 mm | - | 0 W/m² | - |
| 1777834814 | 18.89° C | 47% | 1010.5 hPa | 0 mm | - | 0 W/m² | - |
| 1777833914 | 19.44° C | 46% | 1010.5 hPa | 0 mm | - | 0 W/m² | - |
| 1777833014 | 19.44° C | 45% | 1010.3 hPa | 0 mm | - | 7 W/m² | - |
| 1777832114 | 20° C | 45% | 1010.3 hPa | 0 mm | - | 11 W/m² | - |
| 1777831214 | 20° C | 45% | 1010.2 hPa | 0 mm | - | 19 W/m² | - |
| 1777830314 | 20° C | 46% | 1010.1 hPa | 0 mm | - | 35 W/m² | - |
| 1777829414 | 19.44° C | 48% | 1009.9 hPa | 0 mm | - | 40 W/m² | - |
| 1777828514 | 20° C | 45% | 1009.9 hPa | 0 mm | - | 63 W/m² | - |
| 1777827614 | 20.56° C | 41% | 1010 hPa | 0 mm | - | 70 W/m² | - |
| 1777826714 | 21.11° C | 38% | 1010 hPa | 0 mm | - | 97 W/m² | - |
| 1777825814 | 21.11° C | 39% | 1010.3 hPa | 0 mm | - | 86 W/m² | - |
| 1777824914 | 21.11° C | 38% | 1010.4 hPa | 0 mm | - | 76 W/m² | - |
| 1777824014 | 21.67° C | 39% | 1010.4 hPa | 0 mm | - | 171 W/m² | - |
| 1777823114 | 21.67° C | 38% | 1010.4 hPa | 0 mm | - | 216 W/m² | - |
| 1777822214 | 21.67° C | 39% | 1010.4 hPa | 0 mm | - | 237 W/m² | - |
| 1777821314 | 21.11° C | 41% | 1010.5 hPa | 0 mm | - | 186 W/m² | - |
| 1777820414 | 21.11° C | 43% | 1010.6 hPa | 0 mm | - | 156 W/m² | - |
| 1777819514 | 21.11° C | 40% | 1010.7 hPa | 0 mm | - | 171 W/m² | - |
| 1777818614 | 20.56° C | 37% | 1010.9 hPa | 0 mm | - | 137 W/m² | - |
| 1777817714 | 21.11° C | 36% | 1011 hPa | 0 mm | - | 109 W/m² | - |
| 1777816814 | 21.11° C | 36% | 1011 hPa | 0 mm | - | 102 W/m² | - |
| 1777815914 | 21.11° C | 33% | 1011.2 hPa | 0 mm | - | 183 W/m² | - |
* Rain latest hour (hover to see other rain measurements)
** Current wind speed in m/s (hover to see current wind gust speed)